Location: Newark
(46.2167°N, 5.8664°E)
Time: 23:42:24
(UTC+00:00)

N. Korean satellite - Pass Details

Date: 20 October 2019
Orbit: 456 x 506 km, 97.2° (Epoch: 20 November)

Event Time Altitude Azimuth Distance (km) Brightness Sun altitude
Rises 04:47:01 0° 25° (NNE) 2,557 10.6 -13.3°
Reaches altitude 10° 04:49:26 10° 42° (NE) 1,681 9.9 -12.9°
Maximum altitude 04:52:18 22° 94° (E) 1,122 9.5 -12.4°
Drops below altitude 10° 04:55:11 10° 147° (SSE) 1,690 9.8 -11.9°
Sets 04:57:36 0° 163° (SSE) 2,575 10.5 -11.5°
